Location: Lombard
(41.8800°N, 88.0080°W)
Time: 19:18:28
(UTC-05:00)

Oscar 11 - Pass Details

Date: 25 May 2022
Orbit: 613 x 622 km, 97.6° (Epoch: 28 June)

Event Time Altitude Azimuth Distance (km) Brightness Sun altitude
Rises 04:48:08 0° 31° (NNE) 2,897 11.9 -6.4°
Reaches altitude 10° 04:51:07 10° 53° (NE) 1,987 11.6 -5.9°
Maximum altitude 04:53:47 16° 92° (E) 1,625 10.1 -5.5°
Drops below altitude 10° 04:56:27 10° 130° (SE) 1,981 9.9 -5.1°
Sets 04:59:24 0° 152° (SSE) 2,883 10.4 -4.6°
